Theta_e
288 286 284 283 284 283 282 280 280 283 284 280 280 280 282 284 281 280 280 279 279 279 281 282 283 285 285 285 287 290 291 294 296 297 301 305 304 307 307 309 311 312 313 315
285 283 284 285 284 282 282 281 281 282 283 281 279 279 282 282 281 279 278 278 277 278 279 280 281 283 283 284 285 287 289 292 294 295 296 299 303 308 310 310 310 314 317 319
283 283 285 283 282 281 282 280 280 277 280 280 278 278 275 280 280 279 280 278 277 276 277 278 280 280 282 283 283 285 288 290 292 293 295 298 304 307 308 310 312 313 311 312
284 285 283 282 281 280 278 282 279 277 275 275 276 273 277 277 277 278 278 277 276 276 277 278 278 279 280 282 284 285 287 289 290 291 293 294 296 299 306 307 310 310 306 303
283 282 281 280 281 281 281 281 278 276 274 273 275 272 277 275 275 276 276 275 275 276 276 277 277 279 281 282 284 284 285 287 288 289 290 292 294 298 303 303 304 303 299 297
283 284 283 282 282 281 281 279 277 274 275 270 273 273 276 275 273 274 275 274 274 275 276 277 278 280 280 282 282 283 283 284 286 287 287 289 291 292 295 295 298 297 293 292
280 280 282 282 280 281 280 278 277 275 273 274 274 272 276 274 273 273 271 271 272 275 275 276 276 277 278 279 280 281 282 282 283 284 285 286 288 289 289 290 291 290 288 287
280 281 279 280 279 276 276 275 274 269 272 272 273 270 277 272 274 273 272 271 274 274 275 275 276 277 278 279 280 280 280 280 281 282 283 284 285 286 286 287 287 287 285 285
279 280 280 279 279 279 276 275 275 270 268 267 273 275 274 274 275 276 271 273 272 273 274 274 276 277 277 278 279 279 279 279 280 280 281 281 282 282 283 283 283 283 284 283
278 279 279 278 280 279 278 279 273 272 268 270 274 272 275 272 272 273 270 271 272 273 273 274 275 276 277 278 279 279 279 279 279 279 280 279 279 280 280 280 280 280 281 281
278 277 277 278 276 277 276 275 273 273 272 270 269 275 274 271 270 269 270 271 271 272 272 273 274 275 275 277 277 278 278 278 278 278 278 278 278 278 278 278 278 278 279 280
280 278 278 276 273 275 276 275 275 273 270 271 269 272 274 271 270 269 270 270 271 272 272 273 273 273 274 275 276 277 277 277 278 278 278 277 277 277 276 276 277 277 277 278
280 279 279 277 274 276 274 274 273 272 271 270 270 278 272 270 269 269 268 269 270 271 271 271 271 271 273 274 275 276 276 277 277 278 277 277 277 276 276 276 276 276 276 276
283 277 277 280 279 274 272 272 273 273 271 272 272 275 275 274 269 268 268 268 269 269 268 270 270 271 273 274 275 275 275 276 277 277 276 276 276 277 277 277 276 276 276 275
280 275 271 273 268 268 271 271 272 270 271 273 273 267 274 273 268 267 266 267 268 268 268 269 270 271 273 274 274 275 275 276 277 276 276 275 276 277 277 277 277 277 277 277
278 276 271 271 265 265 269 272 271 271 270 267 268 268 275 268 265 266 266 266 266 267 268 269 270 271 272 274 274 275 275 276 277 276 276 277 276 277 277 277 276 276 276 276
277 276 273 277 269 270 273 271 269 271 270 273 273 280 270 272 272 270 269 267 266 267 268 269 270 271 273 273 275 274 275 276 276 275 275 276 276 276 276 276 276 276 276 276
274 273 273 275 272 276 280 266 270 274 273 271 271 271 274 275 272 270 269 270 268 268 268 269 270 272 274 275 275 276 276 276 276 275 275 275 275 274 275 275 275 276 276 276
277 277 274 273 273 280 276 271 272 275 284 275 275 272 271 268 268 274 271 269 270 268 268 268 268 269 273 273 274 275 274 275 274 274 274 274 275 274 274 274 274 275 275 275
278 276 275 272 275 276 285 276 274 275 283 274 277 273 270 273 278 280 270 269 267 266 266 268 269 271 272 273 275 274 273 273 273 273 273 274 274 274 273 274 274 275 275 275
273 274 272 271 274 279 281 277 277 279 287 274 278 276 273 277 282 276 271 269 270 269 268 269 269 270 271 271 273 272 272 272 273 273 273 273 273 273 273 273 274 274 273 273
273 271 271 272 271 276 277 276 280 287 274 276 279 276 276 276 268 268 271 270 269 268 268 271 270 271 271 272 273 272 272 272 273 273 272 272 272 273 273 272 272 272 272 272
274 278 277 277 281 282 279 284 281 276 280 275 279 277 278 273 271 271 271 271 271 271 271 271 271 271 271 272 272 271 272 271 271 270 269 270 271 271 271 272 271 271 272 272
276 278 278 278 283 281 279 282 278 276 280 279 281 279 279 276 275 272 272 272 271 271 270 271 270 269 270 270 271 272 271 270 268 269 269 269 270 270 271 272 272 273 273 272
281 278 278 279 283 282 281 281 284 280 277 278 279 280 279 279 275 274 272 272 272 271 270 270 270 269 270 270 270 270 270 269 269 269 269 271 271 271 271 272 273 272 271 272
280 281 280 283 287 286 285 284 283 282 279 279 278 277 279 278 275 274 273 273 272 271 270 269 269 270 270 269 269 269 268 268 269 270 270 271 272 271 272 272 272 273 274 273
Wind_Speed
2 5 4 0 1 1 6 10 20 17 11 10 17 19 18 9 8 5 6 10 12 13 14 13 14 15 14 14 15 15 12 13 10 8 7 3 4 4 3 3 6 6 7 10
4 6 4 1 2 5 7 16 13 9 9 14 17 23 15 9 8 2 8 11 12 14 14 14 14 14 15 15 15 15 12 12 10 8 7 5 5 6 5 3 5 6 4 8
5 3 3 1 3 5 7 10 9 18 22 10 11 11 3 7 7 5 7 9 10 12 15 15 15 13 14 14 15 14 12 11 11 12 8 6 6 6 6 5 4 2 4 8
6 3 2 5 2 2 6 3 13 17 8 5 2 7 4 6 7 7 10 12 12 13 13 14 14 14 13 14 14 13 12 10 10 12 9 8 5 5 3 4 4 2 5 7
2 2 2 3 2 1 7 14 13 4 5 6 6 5 3 3 7 4 12 12 12 12 13 14 14 13 12 12 12 12 11 10 10 11 9 7 6 5 4 3 4 4 6 8
3 0 2 2 2 2 11 6 3 1 3 5 5 3 5 3 2 7 11 13 13 14 13 13 12 12 11 11 11 10 11 10 10 10 10 9 7 6 4 5 4 4 6 6
2 2 2 2 4 3 9 8 4 3 3 4 4 6 9 5 4 5 11 13 11 12 13 13 13 12 11 12 12 10 12 11 11 10 10 9 7 6 6 5 4 5 5 5
2 3 2 2 3 2 7 4 3 8 6 8 2 7 2 1 4 5 7 8 8 11 12 13 13 12 12 12 11 12 12 11 10 9 9 8 9 5 5 6 5 6 6 6
2 3 3 3 2 3 5 2 2 5 2 5 4 4 6 2 5 9 9 9 10 12 12 12 12 12 11 11 11 11 11 10 10 9 7 8 8 8 7 8 8 7 8 7
3 4 1 3 2 5 3 7 2 3 6 8 5 6 5 2 11 15 11 10 10 11 12 11 10 11 11 11 10 10 10 10 9 9 8 8 9 9 8 8 11 10 9 9
4 2 3 2 4 3 4 4 3 2 3 5 8 1 3 3 9 13 11 9 9 10 10 10 10 11 10 10 9 9 10 10 9 8 9 9 9 10 9 9 10 11 11 11
4 1 4 0 1 2 1 3 3 3 3 4 5 8 4 3 5 8 10 7 7 7 9 9 9 9 9 9 10 10 10 9 9 8 9 10 10 9 10 11 12 12 13 13
6 3 4 3 3 2 5 5 4 4 2 6 4 4 3 3 4 6 7 6 6 6 8 9 8 8 8 8 8 9 10 9 9 8 10 11 11 11 11 12 13 13 13 14
5 3 5 4 2 2 4 6 9 5 4 2 10 11 4 5 7 6 6 6 7 6 6 7 8 8 8 7 8 9 10 10 9 8 10 11 11 11 11 12 14 14 13 14
2 4 2 5 2 3 4 5 11 12 4 7 3 6 14 7 5 4 5 6 5 5 6 7 8 8 8 7 8 8 9 10 9 9 11 11 11 11 12 13 12 15 15 14
3 2 1 4 1 3 7 9 11 14 5 13 11 14 5 1 3 4 3 3 3 3 4 5 6 7 8 8 8 9 10 11 9 10 10 10 11 11 12 13 11 15 15 12
5 3 2 4 1 5 7 7 13 6 7 6 5 1 4 4 3 3 3 3 1 2 3 3 4 4 5 6 7 8 9 8 9 10 10 10 10 12 12 12 14 15 13 12
5 3 1 5 3 3 1 2 3 6 6 15 3 5 6 3 2 4 5 5 6 5 5 3 0 3 4 4 5 6 7 7 8 8 8 8 9 9 10 11 12 11 10 10
1 3 1 3 3 7 3 6 8 8 5 14 13 5 4 3 3 3 6 6 4 5 2 1 2 1 3 4 4 7 7 6 7 6 6 7 7 8 9 10 10 9 10 10
5 4 1 2 3 4 2 3 5 2 4 10 13 11 10 8 5 4 11 8 9 7 5 4 3 2 3 3 4 5 5 6 5 5 6 6 6 7 9 9 8 8 9 9
4 4 6 4 5 10 2 6 6 2 3 7 13 12 15 9 1 6 11 7 8 8 8 5 3 2 3 3 4 5 5 5 4 4 5 6 6 6 6 7 7 7 8 8
9 10 6 4 4 7 9 8 7 2 1 4 10 11 12 4 6 7 10 10 10 10 8 7 6 5 4 4 4 6 6 4 4 5 5 5 4 4 4 7 5 6 6 6
5 6 4 11 7 2 14 1 3 2 4 8 11 11 14 12 10 14 13 14 13 12 10 9 8 7 6 6 6 7 6 5 5 4 4 4 4 4 3 5 4 4 3 3
7 5 4 2 3 12 11 12 5 6 4 6 11 14 17 13 15 17 13 13 13 12 10 9 9 8 9 8 8 7 8 6 5 5 5 4 4 4 3 3 3 3 3 3
1 7 4 8 11 6 13 14 10 12 6 6 10 13 18 12 15 16 13 12 11 11 10 10 11 10 10 9 9 7 8 8 7 6 5 6 5 5 4 2 2 2 2 3
9 9 8 8 7 3 4 3 11 14 16 13 14 12 12 12 13 13 11 11 12 13 12 11 11 10 9 9 8 8 8 9 9 8 7 6 5 4 3 3 3 6 7 9
Wind_Direction
62 247 255 263 119 292 286 291 300 303 336 280 267 278 287 247 226 253 325 333 333 329 329 330 332 333 334 336 328 322 330 336 333 326 319 313 288 272 223 239 256 244 247 253
214 241 116 148 235 274 294 303 307 313 271 292 280 286 284 225 228 255 331 340 332 327 331 335 338 340 343 333 331 324 336 336 331 320 317 290 315 299 291 280 255 251 302 274
255 78 129 294 303 303 299 285 311 305 323 275 293 270 227 198 199 219 330 337 331 332 331 333 338 342 338 334 331 329 330 338 328 330 312 299 268 245 256 235 221 260 334 295
260 108 203 265 275 353 308 98 317 320 319 317 353 297 230 183 208 222 343 340 339 337 334 331 334 337 338 334 330 330 337 341 333 327 321 322 293 282 293 296 309 328 11 335
74 191 216 268 140 214 261 322 308 292 258 311 175 257 150 190 218 311 346 344 338 337 335 330 330 330 332 334 336 332 346 351 339 337 336 333 321 317 352 9 326 4 22 8
280 219 248 300 284 232 306 310 277 196 251 245 165 266 264 203 218 317 344 344 341 332 334 333 334 332 338 343 344 345 355 355 348 347 350 353 349 349 10 11 351 4 23 13
189 174 131 316 271 161 17 333 324 261 244 312 168 253 281 175 210 300 331 331 333 333 334 336 340 341 340 345 352 355 0 358 354 355 3 360 1 19 39 29 16 35 32 18
300 238 198 7 29 30 58 4 30 299 317 318 285 240 332 106 247 270 313 307 338 342 342 337 338 338 339 346 356 2 2 360 358 3 12 9 18 33 49 51 64 60 56 42
200 235 118 57 126 281 115 67 78 265 191 269 244 256 144 201 310 322 345 342 356 346 342 337 337 340 342 348 356 5 4 6 10 12 22 28 33 42 51 53 62 62 63 61
116 273 152 130 168 60 32 136 195 160 307 295 279 280 312 342 331 319 342 348 353 343 339 335 341 346 348 350 351 11 14 13 19 26 29 39 43 45 51 56 64 64 60 66
143 260 127 172 201 157 158 160 135 247 246 297 310 5 65 35 318 308 328 344 353 340 330 333 346 351 348 355 3 18 22 23 31 37 44 48 48 50 52 59 60 62 64 65
162 263 259 71 7 326 19 168 164 212 152 238 285 281 142 95 315 299 323 336 352 332 323 337 349 348 354 1 10 24 28 28 28 42 59 59 58 59 62 63 63 63 67 64
162 198 285 189 186 175 226 176 153 105 110 224 271 315 187 207 324 309 320 343 330 308 341 347 349 353 357 6 13 24 27 36 33 42 61 65 65 66 67 68 68 64 65 66
151 260 255 259 321 42 202 187 186 185 213 165 237 297 285 350 351 338 338 346 307 328 355 347 352 356 356 13 25 28 31 27 35 44 58 63 62 65 68 73 74 74 69 72
187 256 231 272 284 251 265 206 192 201 190 236 19 260 306 336 313 312 314 311 318 346 8 8 358 356 9 23 31 34 39 41 35 57 64 62 64 65 69 69 75 79 72 70
138 255 276 267 132 223 269 227 214 228 233 264 287 283 213 113 237 243 236 293 323 352 15 15 5 15 16 27 40 46 44 46 42 52 57 65 71 71 71 76 79 76 72 66
173 199 268 268 279 275 273 216 187 179 199 189 206 183 174 178 165 220 178 190 232 299 9 7 25 33 45 46 61 59 54 49 58 56 62 72 77 82 83 85 75 72 79 80
152 160 212 288 297 269 337 148 211 231 218 210 265 222 212 140 157 245 212 185 192 203 189 182 73 57 42 48 59 78 80 78 79 72 73 74 76 81 85 84 78 83 80 73
228 151 229 283 277 304 179 197 183 186 279 195 193 184 207 170 221 210 204 204 190 207 205 187 282 320 53 62 75 87 82 83 88 88 87 85 89 88 86 84 82 89 91 86
119 88 271 181 256 253 243 187 196 211 275 189 173 174 169 175 176 173 179 181 183 195 212 200 185 164 133 100 104 108 106 109 102 103 89 83 85 89 92 95 99 100 96 93
161 192 213 207 262 279 151 148 166 226 248 178 176 166 165 187 237 125 147 169 172 174 182 183 192 186 146 137 138 129 131 123 124 114 101 96 97 107 112 105 88 90 88 89
175 163 188 178 225 278 148 119 196 208 68 185 167 172 180 160 158 169 168 165 175 176 177 183 179 188 184 179 168 156 161 149 142 125 114 106 92 86 82 82 79 79 89 86
236 206 190 209 220 46 197 222 211 197 148 195 189 172 174 165 187 176 182 181 185 186 182 177 184 181 186 190 197 185 176 169 154 140 131 122 103 99 108 124 128 114 116 115
223 176 250 300 223 233 217 224 221 198 232 196 207 177 179 181 180 184 182 184 185 185 188 180 185 197 201 198 201 205 170 173 163 165 165 157 153 150 162 167 169 155 156 144
129 150 216 260 274 263 243 228 211 206 209 205 185 188 194 182 188 185 186 187 187 183 184 184 191 201 209 194 202 191 176 167 180 187 184 188 193 199 178 177 177 183 200 207
186 186 193 229 223 222 256 202 189 193 200 199 179 179 200 194 188 185 194 188 184 184 179 187 196 202 206 196 198 190 180 177 181 190 193 192 186 186 194 200 206 226 228 216